Location: Newark
(41.0000°N, 28.9500°W)
Time: 16:44:26
(UTC+00:00)

N. Korean satellite - Pass Details

Date: 28 January 2020
Orbit: 456 x 506 km, 97.2° (Epoch: 17 February)

Event Time Altitude Azimuth Distance (km) Brightness Sun altitude
Rises 07:35:09 0° 14° (NNE) 2,549 10.3 -18.1°
Reaches altitude 10° 07:37:13 10° 17° (NNE) 1,674 9.4 -17.7°
Maximum altitude 07:40:48 67° 101° (E) 536 6.9 -17.0°
Drops below altitude 10° 07:44:25 10° 184° (S) 1,686 9.4 -16.4°
Sets 07:46:31 0° 187° (S) 2,571 10.3 -16.0°
